TimeAKDT,TemperatureF,Dew PointF,Humidity,Sea Level PressureIn,VisibilityMPH,Wind Direction,Wind SpeedMPH,Gust SpeedMPH,PrecipitationIn,Events,Conditions,WindDirDegrees,DateUTC
12:53 AM,48.0,46.9,96,30.38,10.0,Calm,Calm,-,N/A,,Clear,0,2012-10-06 08:53:00
1:53 AM,48.9,48.0,97,30.38,4.0,Calm,Calm,-,N/A,,Partly Cloudy,0,2012-10-06 09:53:00
1:59 AM,48.2,46.4,93,30.38,1.8,Calm,Calm,-,N/A,,Partly Cloudy,0,2012-10-06 09:59:00
2:09 AM,48.2,46.4,93,30.38,2.5,Calm,Calm,-,N/A,,Partly Cloudy,0,2012-10-06 10:09:00
2:13 AM,46.4,46.4,100,30.38,1.2,Calm,Calm,-,N/A,,Partly Cloudy,0,2012-10-06 10:13:00
2:17 AM,48.2,46.4,93,30.38,0.8,Calm,Calm,-,N/A,,Mist,0,2012-10-06 10:17:00
2:29 AM,46.4,46.4,100,30.38,1.2,Calm,Calm,-,N/A,,Mostly Cloudy,0,2012-10-06 10:29:00
2:34 AM,46.4,46.4,100,30.38,2.0,Calm,Calm,-,N/A,,Mostly Cloudy,0,2012-10-06 10:34:00
2:53 AM,46.0,46.0,100,30.38,1.8,Calm,Calm,-,N/A,,Overcast,0,2012-10-06 10:53:00
3:01 AM,46.4,44.6,93,30.38,0.8,Calm,Calm,-,N/A,,Overcast,0,2012-10-06 11:01:00
3:12 AM,46.4,44.6,93,30.38,1.5,Calm,Calm,-,N/A,,Overcast,0,2012-10-06 11:12:00
3:15 AM,46.4,44.6,93,30.37,3.0,Calm,Calm,-,N/A,,Overcast,0,2012-10-06 11:15:00
3:31 AM,46.4,44.6,93,30.37,1.8,Calm,Calm,-,N/A,,Overcast,0,2012-10-06 11:31:00
3:37 AM,46.4,44.6,93,30.37,0.8,Calm,Calm,-,N/A,,Mist,0,2012-10-06 11:37:00
3:53 AM,46.0,45.0,96,30.37,0.8,Calm,Calm,-,N/A,,Mist,0,2012-10-06 11:53:00
4:03 AM,46.4,46.4,100,30.37,1.2,Calm,Calm,-,N/A,,Overcast,0,2012-10-06 12:03:00
4:14 AM,48.2,46.4,93,30.37,0.5,Calm,Calm,-,N/A,Fog,Fog,0,2012-10-06 12:14:00
4:45 AM,48.2,48.2,100,30.36,1.0,Calm,Calm,-,N/A,,Mist,0,2012-10-06 12:45:00
4:53 AM,48.9,48.0,97,30.36,0.8,Calm,Calm,-,N/A,,Mist,0,2012-10-06 12:53:00
5:53 AM,48.9,48.0,97,30.37,0.2,Calm,Calm,-,N/A,Fog,Fog,0,2012-10-06 13:53:00
6:53 AM,48.0,48.0,100,30.37,0.2,Calm,Calm,-,N/A,Fog,Fog,0,2012-10-06 14:53:00
7:53 AM,46.9,46.9,100,30.37,0.2,Calm,Calm,-,N/A,Fog,Fog,0,2012-10-06 15:53:00
8:53 AM,48.0,48.0,100,30.37,0.2,Calm,Calm,-,N/A,Fog,Fog,0,2012-10-06 16:53:00
9:53 AM,48.0,48.0,100,30.36,0.2,Calm,Calm,-,N/A,Fog,Fog,0,2012-10-06 17:53:00
10:53 AM,50.0,50.0,100,30.36,0.8,Calm,Calm,-,N/A,,Overcast,0,2012-10-06 18:53:00
11:32 AM,51.8,51.8,100,30.36,1.2,Calm,Calm,-,N/A,,Overcast,0,2012-10-06 19:32:00
11:43 AM,51.8,51.8,100,30.35,1.5,Calm,Calm,-,N/A,,Overcast,0,2012-10-06 19:43:00
11:53 AM,53.1,52.0,96,30.36,3.0,West,3.5,-,N/A,,Overcast,260,2012-10-06 19:53:00
12:14 PM,53.6,51.8,94,30.35,10.0,WSW,3.5,-,N/A,,Scattered Clouds,240,2012-10-06 20:14:00
12:53 PM,55.0,51.1,86,30.35,10.0,Calm,Calm,-,N/A,,Clear,0,2012-10-06 20:53:00
1:53 PM,59.0,53.1,81,30.33,10.0,WSW,4.6,-,N/A,,Clear,240,2012-10-06 21:53:00
2:53 PM,57.9,51.1,78,30.33,10.0,SW,4.6,-,N/A,,Clear,220,2012-10-06 22:53:00
3:53 PM,57.0,51.1,81,30.32,10.0,WSW,5.8,-,N/A,,Clear,240,2012-10-06 23:53:00
4:53 PM,55.9,50.0,80,30.32,10.0,SSW,3.5,-,N/A,,Clear,210,2012-10-07 00:53:00
5:53 PM,53.1,48.9,86,30.32,10.0,Calm,Calm,-,N/A,,Clear,0,2012-10-07 01:53:00
6:53 PM,50.0,48.0,93,30.32,10.0,Calm,Calm,-,N/A,,Clear,0,2012-10-07 02:53:00
7:53 PM,48.0,46.0,93,30.32,10.0,Calm,Calm,-,N/A,,Clear,0,2012-10-07 03:53:00
8:53 PM,48.0,46.0,93,30.31,10.0,Calm,Calm,-,N/A,,Clear,0,2012-10-07 04:53:00
9:53 PM,46.9,45.0,93,30.32,5.0,Calm,Calm,-,N/A,,Clear,0,2012-10-07 05:53:00
10:20 PM,46.4,44.6,93,30.31,1.8,Calm,Calm,-,N/A,,Clear,0,2012-10-07 06:20:00
10:22 PM,46.4,44.6,93,30.31,1.2,Calm,Calm,-,N/A,,Partly Cloudy,0,2012-10-07 06:22:00
10:28 PM,46.4,44.6,93,30.31,0.8,Calm,Calm,-,N/A,,Mist,0,2012-10-07 06:28:00
10:42 PM,44.6,44.6,100,30.31,1.0,Calm,Calm,-,N/A,,Mist,0,2012-10-07 06:42:00
10:50 PM,46.4,44.6,93,30.31,0.5,Calm,Calm,-,N/A,Fog,Fog,0,2012-10-07 06:50:00
10:53 PM,46.0,44.1,93,30.31,0.5,Calm,Calm,-,0.01,Fog,Fog,0,2012-10-07 06:53:00
11:18 PM,44.6,42.8,93,30.31,0.8,Calm,Calm,-,N/A,,Mist,0,2012-10-07 07:18:00
11:53 PM,44.1,43.0,96,30.31,1.2,Calm,Calm,-,N/A,,Mostly Cloudy,0,2012-10-07 07:53:00
11:56 PM,44.6,42.8,93,30.31,2.0,Calm,Calm,-,N/A,,Mostly Cloudy,0,2012-10-07 07:56:00